�������l�o���
Date,Time,MP-1(��Sv/h),MP-2(��Sv/h),MP-3(��Sv/h),MP-4(��Sv/h),MP-5(��Sv/h),MP-6(��Sv/h),MP-7(��Sv/h),MP-8(��Sv/h),����,����(m/s),���J
2021/01/31,00:00,0.659,0.941,0.604,1.197,0.838,0.375,0.666,0.628,���쐼,1.7,��
2021/01/31,00:10,0.663,0.945,0.603,1.199,0.840,0.376,0.665,0.629,���쐼,1.5,��
2021/01/31,00:20,0.659,0.945,0.603,1.199,0.839,0.376,0.666,0.628,�k�k��,1.7,��
2021/01/31,00:30,0.662,0.945,0.604,1.199,0.840,0.374,0.666,0.630,�k,2.3,��
2021/01/31,00:40,0.658,0.946,0.603,1.196,0.840,0.375,0.667,0.628,�k,2.3,��
2021/01/31,00:50,0.661,0.944,0.603,1.197,0.839,0.375,0.666,0.631,�k�k��,1.4,��
2021/01/31,01:00,0.660,0.945,0.604,1.198,0.838,0.374,0.665,0.629,�k�k��,1.2,��
2021/01/31,01:10,0.661,0.944,0.605,1.197,0.839,0.377,0.666,0.629,�k��,1.2,��
2021/01/31,01:20,0.660,0.946,0.604,1.195,0.840,0.375,0.667,0.630,�k�k��,1.7,��
2021/01/31,01:30,0.662,0.945,0.603,1.199,0.841,0.375,0.667,0.629,�k�k��,3.4,��
2021/01/31,01:40,0.662,0.944,0.603,1.198,0.839,0.375,0.667,0.630,�k�k��,3.8,��
2021/01/31,01:50,0.661,0.943,0.602,1.196,0.839,0.376,0.666,0.629,�k��,4.8,��
2021/01/31,02:00,0.659,0.944,0.604,1.199,0.838,0.375,0.666,0.627,���k��,4.8,��
2021/01/31,02:10,0.661,0.943,0.604,1.198,0.839,0.374,0.667,0.628,��,5.1,��
2021/01/31,02:20,0.660,0.944,0.604,1.198,0.839,0.375,0.667,0.627,��,5.0,��
2021/01/31,02:30,0.659,0.945,0.604,1.199,0.839,0.376,0.666,0.627,��,5.3,��
2021/01/31,02:40,0.662,0.944,0.603,1.197,0.840,0.374,0.666,0.628,���쐼,5.6,��
2021/01/31,02:50,0.660,0.944,0.604,1.199,0.841,0.376,0.666,0.629,���쐼,4.1,��
2021/01/31,03:00,0.663,0.945,0.603,1.198,0.837,0.375,0.668,0.628,���쐼,4.1,��
2021/01/31,03:10,0.661,0.943,0.602,1.194,0.837,0.376,0.666,0.629,���쐼,3.8,��
2021/01/31,03:20,0.662,0.944,0.604,1.198,0.838,0.377,0.665,0.629,��,4.5,��
2021/01/31,03:30,0.660,0.941,0.601,1.197,0.838,0.374,0.667,0.629,��,4.6,��
2021/01/31,03:40,0.659,0.945,0.603,1.198,0.839,0.377,0.667,0.628,��,4.5,��
2021/01/31,03:50,0.661,0.943,0.604,1.198,0.838,0.376,0.664,0.629,��,3.2,��
2021/01/31,04:00,0.662,0.944,0.603,1.196,0.840,0.375,0.666,0.628,���k��,2.8,��
2021/01/31,04:10,0.663,0.943,0.605,1.194,0.838,0.373,0.667,0.628,��,2.3,��
2021/01/31,04:20,0.662,0.943,0.605,1.197,0.838,0.376,0.667,0.628,���k��,3.3,��
2021/01/31,04:30,0.661,0.942,0.603,1.195,0.838,0.376,0.666,0.628,�쐼,1.9,��
2021/01/31,04:40,0.660,0.943,0.603,1.196,0.837,0.376,0.666,0.628,�쐼,3.1,��
2021/01/31,04:50,0.661,0.941,0.605,1.196,0.837,0.376,0.667,0.629,��,3.3,��
2021/01/31,05:00,0.660,0.943,0.603,1.197,0.836,0.376,0.665,0.629,��,2.9,��
2021/01/31,05:10,0.661,0.941,0.603,1.197,0.838,0.375,0.667,0.629,��,2.5,��
2021/01/31,05:20,0.661,0.942,0.604,1.197,0.837,0.377,0.665,0.628,�k��,2.0,��
2021/01/31,05:30,0.662,0.942,0.604,1.196,0.837,0.375,0.666,0.628,�k��,3.7,��
2021/01/31,05:40,0.660,0.941,0.603,1.197,0.835,0.375,0.665,0.627,��,4.8,��
2021/01/31,05:50,0.662,0.945,0.603,1.196,0.835,0.375,0.666,0.629,��,5.6,��
2021/01/31,06:00,0.661,0.943,0.603,1.197,0.839,0.374,0.668,0.628,��,5.7,��
2021/01/31,06:10,0.659,0.939,0.604,1.196,0.838,0.376,0.666,0.629,��,6.1,��
2021/01/31,06:20,0.659,0.943,0.604,1.197,0.837,0.375,0.665,0.627,���k��,5.8,��
2021/01/31,06:30,0.659,0.941,0.603,1.195,0.838,0.375,0.667,0.629,���k��,4.7,��
2021/01/31,06:40,0.661,0.941,0.602,1.194,0.838,0.374,0.665,0.629,���k��,4.3,��
2021/01/31,06:50,0.660,0.940,0.603,1.196,0.836,0.374,0.666,0.629,���k��,3.6,��
2021/01/31,07:00,0.661,0.941,0.604,1.196,0.838,0.376,0.664,0.627,���k��,4.3,��
2021/01/31,07:10,0.661,0.941,0.604,1.196,0.837,0.375,0.666,0.627,���k��,3.6,��
2021/01/31,07:20,0.661,0.942,0.602,1.196,0.836,0.375,0.664,0.629,���k��,3.7,��
2021/01/31,07:30,0.660,0.943,0.604,1.196,0.836,0.375,0.666,0.627,���k��,3.7,��
2021/01/31,07:40,0.659,0.942,0.604,1.196,0.836,0.375,0.665,0.628,���k��,4.8,��
2021/01/31,07:50,0.662,0.943,0.602,1.196,0.837,0.377,0.667,0.630,�k��,4.2,��
2021/01/31,08:00,0.662,0.942,0.603,1.197,0.838,0.375,0.665,0.626,�k�k��,4.2,��
2021/01/31,08:10,0.662,0.943,0.604,1.196,0.837,0.375,0.667,0.628,�k��,4.8,��
2021/01/31,08:20,0.664,0.945,0.604,1.197,0.836,0.376,0.668,0.628,�k��,6.6,��
2021/01/31,08:30,0.661,0.943,0.602,1.197,0.838,0.376,0.666,0.629,�k��,6.3,��
2021/01/31,08:40,0.661,0.945,0.603,1.197,0.839,0.375,0.667,0.629,�k��,8.5,��
2021/01/31,08:50,0.664,0.946,0.603,1.197,0.839,0.376,0.669,0.629,�k��,7.9,��
2021/01/31,09:00,0.662,0.944,0.604,1.197,0.839,0.376,0.666,0.631,�k��,6.7,��
2021/01/31,09:10,0.663,0.946,0.603,1.197,0.838,0.375,0.667,0.628,�k��,7.5,��
2021/01/31,09:20,0.663,0.943,0.605,1.198,0.838,0.376,0.668,0.629,�k��,6.9,��
2021/01/31,09:30,0.665,0.947,0.603,1.197,0.840,0.376,0.669,0.629,�k��,8.0,��
2021/01/31,09:40,0.662,0.947,0.605,1.199,0.839,0.375,0.668,0.630,�k��,6.2,��
2021/01/31,09:50,0.662,0.947,0.603,1.198,0.839,0.375,0.669,0.628,�k��,6.5,��
2021/01/31,10:00,0.664,0.945,0.604,1.198,0.840,0.376,0.666,0.630,�k�k��,5.9,��
2021/01/31,10:10,0.662,0.947,0.606,1.199,0.839,0.375,0.666,0.631,�k��,5.3,��
2021/01/31,10:20,0.664,0.946,0.604,1.199,0.843,0.377,0.666,0.629,�k�k��,4.6,��
2021/01/31,10:30,0.663,0.947,0.604,1.198,0.841,0.376,0.666,0.628,�k�k��,3.1,��
2021/01/31,10:40,0.663,0.946,0.605,1.196,0.838,0.377,0.667,0.631,�k��,3.2,��
2021/01/31,10:50,0.661,0.946,0.605,1.198,0.841,0.376,0.667,0.630,�k,2.8,��
2021/01/31,11:00,0.663,0.950,0.605,1.199,0.840,0.376,0.666,0.630,�k��,2.9,��
2021/01/31,11:10,0.662,0.946,0.604,1.198,0.843,0.378,0.666,0.630,�k��,3.5,��
2021/01/31,11:20,0.662,0.948,0.605,1.197,0.841,0.376,0.667,0.629,�k�k��,3.3,��
2021/01/31,11:30,0.663,0.950,0.606,1.198,0.841,0.376,0.666,0.631,�k��,1.4,��
2021/01/31,11:40,0.661,0.949,0.606,1.198,0.844,0.376,0.666,0.629,�k,1.5,��
2021/01/31,11:50,0.663,0.947,0.606,1.202,0.842,0.376,0.667,0.630,�k�k��,3.6,��
2021/01/31,12:00,0.663,0.947,0.607,1.201,0.843,0.375,0.668,0.629,�k��,2.6,��
2021/01/31,12:10,0.662,0.948,0.606,1.201,0.842,0.376,0.667,0.631,�k��,3.5,��
2021/01/31,12:20,0.662,0.949,0.606,1.200,0.843,0.377,0.667,0.629,�k��,2.3,��
2021/01/31,12:30,0.663,0.947,0.606,1.201,0.844,0.376,0.668,0.630,�k��,3.7,��
2021/01/31,12:40,0.664,0.947,0.606,1.199,0.842,0.375,0.667,0.630,�k��,5.6,��
2021/01/31,12:50,0.662,0.946,0.605,1.202,0.843,0.376,0.668,0.630,�k��,7.6,��
2021/01/31,13:00,0.665,0.947,0.606,1.201,0.844,0.376,0.667,0.630,���k��,8.3,��
2021/01/31,13:10,0.664,0.944,0.605,1.200,0.843,0.377,0.668,0.630,�k��,5.6,��
2021/01/31,13:20,0.663,0.950,0.606,1.200,0.843,0.376,0.666,0.632,�k�k��,4.5,��
2021/01/31,13:30,0.663,0.949,0.605,1.201,0.845,0.376,0.667,0.630,�k�k��,5.5,��
2021/01/31,13:40,0.663,0.949,0.605,1.201,0.844,0.376,0.667,0.629,�k�k��,4.7,��
2021/01/31,13:50,0.663,0.949,0.605,1.199,0.845,0.376,0.667,0.628,�k�k��,4.2,��
2021/01/31,14:00,0.663,0.947,0.606,1.202,0.845,0.377,0.667,0.628,�k�k��,5.7,��
2021/01/31,14:10,0.663,0.951,0.606,1.201,0.844,0.376,0.668,0.628,�k�k��,5.5,��
2021/01/31,14:20,0.663,0.949,0.606,1.201,0.843,0.374,0.667,0.628,�k�k��,6.0,��
2021/01/31,14:30,0.664,0.951,0.607,1.200,0.845,0.377,0.666,0.629,�k�k��,6.6,��
2021/01/31,14:40,0.663,0.950,0.604,1.200,0.843,0.376,0.668,0.628,�k�k��,7.4,��
2021/01/31,14:50,0.664,0.950,0.607,1.199,0.844,0.375,0.671,0.629,�k�k��,7.6,��
2021/01/31,15:00,0.663,0.951,0.603,1.197,0.843,0.377,0.670,0.629,�k�k��,7.4,��
2021/01/31,15:10,0.663,0.948,0.604,1.201,0.843,0.374,0.669,0.629,�k��,8.2,��
2021/01/31,15:20,0.664,0.948,0.606,1.199,0.844,0.376,0.669,0.629,�k��,8.0,��
2021/01/31,15:30,0.662,0.947,0.608,1.200,0.845,0.375,0.668,0.630,�k��,8.6,��
2021/01/31,15:40,0.664,0.950,0.604,1.200,0.843,0.375,0.668,0.629,�k�k��,7.2,��
2021/01/31,15:50,0.663,0.949,0.605,1.200,0.844,0.376,0.669,0.629,�k��,7.7,��
2021/01/31,16:00,0.663,0.950,0.605,1.199,0.844,0.376,0.669,0.629,�k��,6.3,��
2021/01/31,16:10,0.663,0.949,0.606,1.198,0.844,0.376,0.667,0.629,�k��,5.3,��
2021/01/31,16:20,0.662,0.950,0.605,1.200,0.843,0.376,0.668,0.629,�k��,5.4,��
2021/01/31,16:30,0.661,0.948,0.605,1.201,0.844,0.376,0.669,0.628,�k��,4.7,��
2021/01/31,16:40,0.662,0.947,0.606,1.200,0.843,0.375,0.667,0.628,�k��,5.1,��
2021/01/31,16:50,0.662,0.950,0.603,1.200,0.844,0.377,0.667,0.630,�k��,6.8,��
2021/01/31,17:00,0.661,0.948,0.605,1.198,0.844,0.375,0.668,0.629,�k�k��,5.3,��
2021/01/31,17:10,0.661,0.948,0.606,1.199,0.843,0.376,0.667,0.629,�k�k��,6.2,��
2021/01/31,17:20,0.663,0.949,0.606,1.197,0.843,0.376,0.666,0.629,�k��,5.8,��
2021/01/31,17:30,0.660,0.951,0.605,1.199,0.843,0.375,0.666,0.630,�k��,4.1,��
2021/01/31,17:40,0.660,0.949,0.606,1.201,0.845,0.376,0.666,0.628,�k��,4.3,��
2021/01/31,17:50,0.661,0.950,0.604,1.200,0.843,0.376,0.668,0.628,�k��,3.7,��
2021/01/31,18:00,0.660,0.949,0.605,1.201,0.843,0.375,0.667,0.629,�k��,4.6,��
2021/01/31,18:10,0.661,0.950,0.603,1.202,0.844,0.374,0.668,0.629,���k��,5.4,��
2021/01/31,18:20,0.660,0.947,0.602,1.199,0.841,0.375,0.667,0.629,���k��,5.8,��
2021/01/31,18:30,0.660,0.950,0.604,1.201,0.843,0.375,0.669,0.628,���k��,5.8,��
2021/01/31,18:40,0.661,0.948,0.603,1.199,0.843,0.374,0.667,0.630,���k��,5.8,��
2021/01/31,18:50,0.662,0.949,0.604,1.201,0.841,0.375,0.667,0.630,�k��,4.9,��
2021/01/31,19:00,0.659,0.950,0.603,1.199,0.843,0.376,0.666,0.629,�k��,5.5,��
2021/01/31,19:10,0.662,0.947,0.604,1.201,0.842,0.374,0.666,0.629,�k��,4.7,��
2021/01/31,19:20,0.661,0.947,0.606,1.200,0.844,0.376,0.666,0.628,�k��,3.9,��
2021/01/31,19:30,0.661,0.947,0.604,1.200,0.844,0.375,0.666,0.628,���k��,3.3,��
2021/01/31,19:40,0.659,0.946,0.604,1.201,0.840,0.375,0.666,0.630,���k��,4.1,��
2021/01/31,19:50,0.660,0.949,0.603,1.199,0.841,0.375,0.666,0.628,���k��,7.0,��
2021/01/31,20:00,0.661,0.948,0.604,1.200,0.842,0.374,0.667,0.628,���k��,7.8,��
2021/01/31,20:10,0.661,0.948,0.603,1.201,0.844,0.374,0.665,0.628,���k��,7.6,��
2021/01/31,20:20,0.660,0.948,0.604,1.201,0.842,0.374,0.666,0.630,���k��,7.0,��
2021/01/31,20:30,0.661,0.948,0.602,1.198,0.842,0.375,0.666,0.627,���k��,6.8,��
2021/01/31,20:40,0.661,0.949,0.602,1.199,0.844,0.375,0.668,0.627,���k��,5.6,��
2021/01/31,20:50,0.662,0.949,0.603,1.198,0.842,0.374,0.666,0.630,�k��,3.1,��
2021/01/31,21:00,0.659,0.948,0.601,1.198,0.843,0.372,0.666,0.629,�k��,3.4,��
2021/01/31,21:10,0.660,0.946,0.601,1.200,0.843,0.374,0.665,0.630,�k��,4.6,��
2021/01/31,21:20,0.661,0.948,0.604,1.200,0.841,0.377,0.667,0.630,�k��,5.3,��
2021/01/31,21:30,0.661,0.946,0.602,1.199,0.841,0.374,0.665,0.628,���k��,5.6,��
2021/01/31,21:40,0.662,0.947,0.604,1.200,0.840,0.375,0.667,0.629,�k��,4.1,��
2021/01/31,21:50,0.661,0.946,0.602,1.202,0.841,0.374,0.665,0.628,�k��,2.5,��
2021/01/31,22:00,0.660,0.947,0.602,1.200,0.842,0.374,0.667,0.627,�k�k��,3.3,��
2021/01/31,22:10,0.661,0.947,0.603,1.198,0.840,0.374,0.667,0.628,�k�k��,4.7,��
2021/01/31,22:20,0.658,0.946,0.604,1.201,0.841,0.374,0.665,0.629,�k��,5.3,��
2021/01/31,22:30,0.660,0.948,0.603,1.200,0.843,0.376,0.665,0.626,�k��,5.5,��
2021/01/31,22:40,0.662,0.949,0.603,1.199,0.841,0.374,0.665,0.629,�k��,5.0,��
2021/01/31,22:50,0.660,0.948,0.604,1.199,0.842,0.375,0.665,0.629,�k��,4.6,��
2021/01/31,23:00,0.661,0.948,0.603,1.199,0.842,0.373,0.664,0.627,�k��,3.0,��
2021/01/31,23:10,0.660,0.947,0.602,1.200,0.841,0.374,0.665,0.628,�k��,2.2,��
2021/01/31,23:20,0.660,0.947,0.604,1.198,0.841,0.376,0.665,0.629,�k��,3.9,��
2021/01/31,23:30,0.661,0.948,0.603,1.198,0.840,0.374,0.665,0.628,�k��,5.4,��
2021/01/31,23:40,0.659,0.947,0.604,1.200,0.842,0.374,0.666,0.628,�k��,7.3,��
2021/01/31,23:50,0.661,0.946,0.602,1.199,0.842,0.374,0.666,0.628,�k��,6.7,��
